Regional Weather Roundup
Issued by NWS Sterling, VA

Home | Current Version | Previous Version | Text Only | Print | Product List | Glossary On
Versions: 1 2 3 4 5 6 7 8 9 10 11 12 13 14 15 16 17 18 19 20 21 22 23 24 25 26 27 28 29 30 31 32 33 34 35 36 37 38 39 40 41 42 43 44 45 46 47 48 49 50
000
ASUS41 KLWX 261710
RWRLWX

REGIONAL WEATHER ROUNDUP
NATIONAL WEATHER SERVICE BALTIMORE MD/WASHINGTON DC
100 PM EDT TUE MAY 26 2015

Note: "FAIR" indicates few or no clouds below 12,000 feet
with no significant weather and/or obstructions to visibility.
 TC=TEMPERATURE CELSIUS

 * =Non NWS site. Station does not report precipitation (e.g. rain,
    snow, etc.), thunder, or fog.

DCZ001-MDZ009-015-VAZ040>042-051-053>054-261800-
WASHINGTON METRO

CITY           SKY/WX    TMP DP  RH WIND       PRES   REMARKS
WASHINGTON NAT CLOUDY    85  67  54 S13G20    30.21F
DULLES         PTSUNNY   83  66  56 VRB7      30.21S
ANDREWS AFB    MOSUNNY   82  67  60 SW10G22   30.21F
FT BELVOIR     SUNNY     83  66  55 S9G17     30.21F
QUANTICO       PTSUNNY   84  65  52 SW12      30.22F
COLLEGE PARK*  SUNNY     82  64  54 S8        30.21S
LEESBURG*      SUNNY     86  68  54 S8        30.22F
GAITHERSBURG*  SUNNY     82  64  54 S7        30.25S

$$

MDZ006>007-011-014-261800-
BALTIMORE METRO

CITY           SKY/WX    TMP DP  RH WIND       PRES   REMARKS
BWI AIRPORT    PTSUNNY   84  64  50 SW12G18   30.20F
MD SCIENCE CTR   N/A     83  64  52 MISG      30.20F
MARTIN STATE   MOSUNNY   79  70  73 SE15      30.23F
ANNAPOLIS      MOSUNNY   78  66  66 SE13      30.21F
FORT MEADE*    SUNNY     82  64  54 W6        30.23F

$$

MDZ012-015-019>023-261800-
MARYLAND EASTERN SHORE

CITY           SKY/WX    TMP DP  RH WIND       PRES   REMARKS
OCEAN CITY     SUNNY     73  64  73 S9G21     30.28F
SALISBURY      MOSUNNY   81  64  56 S12       30.26S
BAY BRIDGE AP*   N/A    N/A N/A N/A S16       30.22F
CAMBRIDGE*     SUNNY     79  63  57 S10G18    30.24F
EASTON*        MOSUNNY   84  68  58 SW12      30.27F

$$

MDZ017>025-261800-
SOUTHERN MARYLAND

CITY           SKY/WX    TMP DP  RH WIND       PRES   REMARKS
PATUXENT RIVER PTSUNNY   84  66  54 S14G21    30.23F
ST INIGOES     SUNNY     83  67  58 S12       30.24F
LEONARDTOWN*   SUNNY     81  64  57 S9G17     30.25F

$$

MDZ003>005-261800-
NORTH CENTRAL MARYLAND

CITY           SKY/WX    TMP DP  RH WIND       PRES   REMARKS
FREDERICK*     SUNNY     84  64  51 SW7       30.23S
HAGERSTOWN APT MOSUNNY   84  61  45 SW8       30.20F
WESTMINSTER*   SUNNY     84  63  48 SW8       30.22S

$$

MDZ501>502-261800-
WESTERN MARYLAND

CITY           SKY/WX    TMP DP  RH WIND       PRES   REMARKS
OAKLAND*       CLOUDY    66  66 100 SW3       30.31F
CUMBERLAND*    CLOUDY    77  64  65 CALM      30.25F

$$

VAZ025>031-261800-
SHENANDOAH VALLEY

CITY           SKY/WX    TMP DP  RH WIND       PRES   REMARKS
WINCHESTER*    PTSUNNY   82  55  39 S7        30.21F
FRONT ROYAL*   FAIR      79  64  61 CALM      30.20F
LURAY*         FAIR      84  64  51 S7        30.22S
NEW MARKET*    PTSUNNY   80  63  56 SW5       30.21S
STAUNTON*      CLOUDY    81  62  52 S6        30.26F
WAYNESBORO*    FAIR      78  63  60 W6        30.26F

$$

WVZ021-048>050-054>055-261800-
EASTERN WEST VIRGINIA PANHANDLE

CITY           SKY/WX    TMP DP  RH WIND       PRES   REMARKS
MARTINSBURG    MOSUNNY   82  63  52 S6        30.21S
PETERSBURG*    CLOUDY    82  60  47 S5        30.22F

$$

VAZ036>039-050-261800-
CENTRAL FOOTHILLS

CITY           SKY/WX    TMP DP  RH WIND       PRES   REMARKS
CHARLOTTESVILL MOSUNNY   82  66  58 SW8       30.22F
CULPEPER*      SUNNY     83  66  56 S7        30.21F
ORANGE*        SUNNY     84  68  58 S9        30.23F
GORDONSVILLE*  FAIR      82  66  59 S10G16    30.21F
WARRENTON*     FAIR      85  69  59 S7G17     30.21S

$$

VAZ055>057-261800-
NORTH AND CENTRAL PIEDMONT

CITY           SKY/WX    TMP DP  RH WIND       PRES   REMARKS
FREDERICKSBRG* PTSUNNY   85  67  55 SW14G20   30.21S
STAFFORD*      PTSUNNY   84  64  50 SW10G17   30.26S

$$

NCZ024-NYZ072-PAZ021-071-VAZ022-071-261800-
OTHER REGIONAL OBSERVATIONS

CITY           SKY/WX    TMP DP  RH WIND       PRES   REMARKS
NEW YORK CITY  SUNNY     85  61  44 MISG      30.21F
PHILADELPHIA   MOSUNNY   84  62  47 SW15G21   30.21F
PITTSBURGH     LGT RAIN  73  64  73 S8        30.19F
ROANOKE        PTSUNNY   81  65  58 VRB6      30.27F
RICHMOND       CLOUDY    84  67  56 S13G21    30.25F
RALEIGH        MOSUNNY   83  67  58 VRB7      30.28F

$$

ANZ530>537-261800-
MARINE OBSERVATIONS

STATION/POSITION TIME  TEMP    WIND        PRES
                       AIR SEA DIR/SP/G
                 (UTC) (F)     (DEG/KT/KT) (MB)
THOMAS PT LIGHT  1700   72 67  160/ 16/ 17 1023.6F
BALT KEY BRIDGE  1600   73     110/ 10/ 11 1022.9F
LEWISETTA        1600   78 72              1024.3F
SOLOMONS ISLAND  1600      70                N/A
PINEY POINT      1600          220/ 12/ 13   N/A

$$




USA.gov is the U.S. government's official web portal to all federal, state and local government web resources and services.